Wind_Speed
19 20 21 21 21 21 20 21 21 22 21 22 23 24 23 21 19 21 23 17 10 9 12 10 9 11 8 14 13 7 2 9 14 3 3 24 17 21 34 34 30 9 29 30 36
20 20 21 21 22 22 21 20 22 23 23 23 23 23 22 21 20 26 23 16 17 15 11 11 9 12 23 20 27 7 4 13 16 14 17 19 16 10 12 26 29 31 29 35 35
20 20 21 21 21 22 22 21 21 23 24 23 21 20 17 15 18 16 6 18 20 16 13 11 15 23 25 27 17 18 9 21 17 20 26 13 12 10 11 13 34 35 33 31 33
21 21 21 22 22 22 23 22 22 23 24 23 21 19 15 10 4 5 3 14 17 15 12 14 14 22 10 11 5 9 24 24 21 31 16 8 15 9 17 6 36 35 32 26 27
22 22 22 22 23 22 22 23 22 22 24 22 21 18 13 8 23 3 5 11 15 17 17 18 19 21 12 8 8 8 12 29 36 31 29 26 15 7 11 21 32 32 28 25 21
23 23 23 23 23 23 23 23 23 22 24 22 20 17 9 8 2 10 6 10 18 20 19 21 18 20 24 18 6 6 13 27 27 29 29 25 11 13 10 21 30 29 26 24 22
23 24 24 24 23 24 23 22 24 23 24 21 16 14 12 24 4 10 9 13 18 21 20 20 20 21 25 11 19 12 8 13 19 29 22 34 14 11 25 26 25 26 25 24 23
23 24 24 24 24 24 23 22 25 24 24 20 12 12 11 1 10 12 10 8 18 16 17 14 17 24 28 21 13 7 8 6 10 15 19 18 14 16 26 25 25 25 27 25 23
25 24 24 24 25 25 23 22 25 24 26 15 7 9 14 3 17 14 15 16 17 19 21 20 24 27 19 5 3 6 6 14 6 8 6 7 16 24 31 29 27 28 27 27 24
25 26 24 24 24 26 23 21 25 22 11 5 8 7 19 13 19 17 15 19 19 18 22 25 25 6 5 2 7 8 6 16 12 9 7 9 10 19 31 30 28 27 29 27 26
27 26 26 23 22 24 23 22 11 3 6 11 11 17 32 14 17 19 20 22 23 24 9 20 4 7 12 12 12 11 10 10 7 9 8 8 15 17 25 24 21 27 30 30 26
28 28 26 23 21 20 20 16 20 14 24 29 30 34 36 27 17 21 25 24 22 10 9 7 9 13 17 18 12 10 12 12 14 17 9 9 12 12 11 6 30 27 28 30 29
27 28 28 25 21 17 16 17 21 29 10 37 37 37 34 28 22 24 27 30 9 10 12 11 11 19 21 18 12 11 6 13 13 18 13 11 3 4 13 25 28 34 31 30 32
27 26 27 27 14 10 19 16 17 21 4 13 13 30 34 32 12 26 29 27 8 16 15 12 15 22 21 16 11 7 5 5 4 17 9 12 6 7 20 15 18 30 34 32 38
27 26 23 22 25 20 17 17 13 12 4 8 18 11 31 28 17 22 32 32 13 12 10 14 17 19 20 16 7 7 8 6 8 5 5 11 5 9 18 13 10 19 33 35 43
27 26 24 19 27 14 9 7 10 2 8 7 12 16 18 22 21 18 32 31 24 13 16 13 25 16 16 12 9 6 4 5 7 1 2 7 8 6 15 19 17 20 31 38 43
30 27 25 24 25 7 14 10 1 5 7 6 17 21 20 10 19 19 21 19 17 12 12 16 20 16 14 9 9 5 4 2 3 1 7 8 7 8 20 19 21 16 31 31 45
32 29 26 25 20 15 6 2 7 12 24 17 17 13 17 17 15 19 18 17 20 17 6 9 14 17 16 10 11 8 9 6 7 4 10 12 8 6 22 31 32 34 35 33 34
34 28 27 19 14 15 4 6 6 14 17 20 20 16 10 18 12 18 14 19 19 20 14 10 12 12 11 6 11 10 6 10 3 4 3 4 6 6 13 15 22 28 28 36 39
33 30 24 14 16 20 4 8 10 24 23 22 23 19 19 20 19 21 19 21 19 21 18 10 7 15 11 12 13 11 8 4 3 3 6 6 2 3 6 10 10 14 23 34 38
22 12 13 11 28 17 8 9 15 31 29 21 25 28 25 8 18 16 21 17 23 22 23 19 7 13 13 10 10 2 5 4 7 6 6 2 3 4 9 10 10 10 26 34 36
9 4 4 29 9 8 10 7 19 20 28 25 23 25 24 8 8 20 16 22 29 20 23 23 6 11 16 10 13 9 9 10 5 6 2 5 5 12 11 9 16 14 18 16 13
15 11 13 16 7 10 10 22 26 22 23 26 26 25 23 9 7 9 15 22 30 24 24 15 13 10 7 12 14 15 11 9 6 4 5 4 3 1 8 7 19 18 16 18 12
8 4 7 14 17 11 14 17 20 30 24 28 26 15 16 11 13 12 14 9 34 25 41 18 7 8 8 10 11 12 15 8 8 5 6 6 6 6 9 7 7 17 12 13 19
5 5 11 6 9 17 15 16 24 23 22 26 18 7 16 8 12 9 9 8 16 31 21 14 9 8 8 7 5 8 8 8 8 8 7 5 11 11 12 10 14 12 9 6 8
7 7 11 16 18 13 13 17 21 24 14 8 16 14 21 6 4 6 10 6 4 5 22 14 6 7 4 3 6 6 10 17 17 11 8 7 7 16 24 19 17 15 16 10 9
11 12 9 11 8 9 10 24 19 22 7 8 19 8 9 6 9 10 16 19 10 3 3 10 7 4 5 2 4 6 5 5 7 13 11 10 8 9 8 7 12 16 11 6 8
Wind_Direction
342 341 342 342 342 342 342 338 337 335 332 323 314 306 301 296 291 283 271 256 237 250 269 274 255 255 233 239 215 174 115 111 186 184 82 64 121 127 129 136 152 170 140 138 148
338 337 337 338 338 338 338 337 335 334 332 327 318 311 298 294 291 277 267 241 218 233 257 270 272 263 238 223 210 142 282 153 178 193 111 113 87 66 130 138 120 127 134 142 141
335 334 333 333 334 334 334 334 334 332 333 328 322 323 307 297 303 290 271 219 212 220 239 251 261 280 276 269 226 178 222 105 110 83 105 109 105 118 91 137 143 137 146 146 151
329 331 330 330 330 331 329 330 331 329 331 328 321 326 310 287 259 7 264 189 204 208 232 234 253 268 270 274 211 90 109 117 122 111 105 97 134 173 144 129 138 142 151 156 153
326 325 326 326 326 326 326 324 327 326 328 326 319 318 307 265 246 286 18 188 194 206 220 222 251 260 261 288 110 97 105 110 120 130 131 133 146 160 144 123 136 145 154 158 162
323 322 321 322 323 323 322 321 321 322 325 323 316 311 284 255 320 230 247 219 211 210 217 219 241 255 269 283 116 106 135 127 123 115 111 105 111 108 165 135 138 148 158 165 164
319 320 319 318 319 319 317 317 314 317 320 318 311 306 267 248 240 211 257 229 215 213 217 224 248 266 278 305 133 192 120 118 106 120 121 117 126 116 137 138 145 155 165 172 171
319 318 318 316 316 314 313 313 309 311 314 308 302 297 267 237 217 226 211 244 201 207 226 236 257 263 272 289 153 153 129 117 136 117 144 120 140 142 148 153 161 169 176 179 177
320 318 316 316 314 312 311 311 305 307 307 288 280 285 268 285 206 197 210 213 196 200 227 244 257 262 289 294 231 164 189 129 135 149 139 106 150 158 169 170 173 181 178 171 172
320 318 316 315 315 311 310 310 304 305 296 276 216 290 250 223 202 206 204 203 200 210 231 240 255 236 280 282 198 190 214 149 148 193 144 133 155 165 178 175 182 182 167 171 178
320 317 315 314 316 313 310 321 316 326 295 246 270 221 290 281 206 207 200 201 199 218 210 232 223 239 240 250 253 203 179 117 254 184 138 177 155 172 178 171 178 169 169 171 177
319 317 314 313 313 307 300 295 288 290 305 292 274 259 267 263 236 196 195 199 202 204 202 224 217 240 244 249 231 240 159 182 217 170 125 173 161 166 71 260 177 179 178 180 179
318 315 314 312 313 299 277 283 330 312 277 278 265 264 256 251 220 188 201 193 187 207 210 214 210 235 242 251 237 241 191 201 175 178 166 135 112 100 187 225 201 181 183 191 177
316 315 315 315 311 277 273 324 308 351 272 267 224 235 245 242 192 194 201 204 187 204 218 216 229 227 238 245 219 243 262 285 150 155 180 177 194 188 200 238 199 176 181 188 172
314 312 311 316 297 290 294 309 324 340 283 257 199 189 202 220 201 188 194 205 215 191 204 214 224 226 236 243 218 218 255 217 259 212 190 193 111 221 191 238 189 181 181 183 179
312 307 304 299 287 322 289 340 356 286 249 280 152 176 181 214 211 204 186 214 230 213 221 232 221 230 227 244 250 216 233 296 246 177 0 227 160 173 182 201 202 171 180 185 177
310 301 293 283 271 281 303 319 219 228 290 255 152 163 181 183 196 222 182 195 217 208 221 220 236 240 231 197 243 182 138 281 352 324 231 252 259 201 194 188 189 181 177 192 182
306 306 291 272 273 271 255 243 233 238 239 287 317 177 182 195 193 221 185 193 223 233 213 213 235 232 226 200 197 207 161 158 203 197 240 246 244 227 187 190 191 190 197 205 187
314 313 297 271 241 225 170 227 209 239 256 258 274 269 201 196 179 207 206 195 208 224 226 199 239 247 216 180 171 227 174 204 216 250 318 254 164 20 169 186 187 191 198 206 207
323 321 292 260 196 171 192 236 230 243 268 283 283 287 288 201 197 191 224 192 198 221 225 250 210 232 206 184 234 160 166 241 345 229 285 265 308 222 137 138 148 191 190 209 210
323 313 315 174 185 167 219 224 235 253 274 283 284 290 287 261 199 195 214 192 196 207 226 235 218 248 184 194 202 143 177 182 175 157 200 266 256 213 138 148 156 166 173 211 206
347 275 45 159 165 210 240 240 253 263 269 274 267 267 274 302 295 201 220 194 191 203 223 225 201 239 203 197 184 197 185 172 132 275 223 157 248 160 158 147 126 122 142 135 130
316 273 243 199 205 229 237 239 252 255 255 264 270 269 275 271 304 288 235 195 190 196 224 218 231 243 285 212 187 202 221 188 161 134 237 139 277 92 126 126 136 117 141 162 188
301 295 279 268 250 243 264 272 259 246 253 262 270 278 288 274 268 276 287 256 195 195 215 206 227 171 212 207 179 200 214 194 169 149 230 205 140 57 72 94 89 124 139 172 191
254 278 347 320 323 325 306 290 273 277 258 252 264 283 290 298 294 280 298 344 220 196 205 203 206 207 221 238 270 220 188 213 219 217 162 190 150 179 157 157 143 130 144 173 201
307 350 327 295 287 284 279 280 263 265 280 290 328 204 249 325 27 337 356 359 270 276 195 210 202 160 208 240 236 230 212 207 240 225 245 223 197 190 189 163 161 183 182 187 214
317 340 321 290 306 311 314 314 301 256 260 284 332 251 221 18 284 314 300 286 280 326 244 147 136 114 183 202 330 317 249 221 246 213 199 232 222 137 141 142 165 156 147 170 231
Height
1531 1528 1525 1522 1519 1517 1514 1511 1509 1505 1501 1498 1495 1492 1490 1489 1488 1486 1484 1488 1488 1488 1490 1493 1493 1495 1496 1495 1497 1501 1513 1525 1528 1516 1507 1497 1501 1507 1510 1519 1524 1526 1532 1539 1543
1529 1526 1523 1521 1517 1515 1512 1509 1507 1503 1500 1496 1492 1489 1486 1485 1483 1479 1477 1482 1484 1485 1488 1489 1489 1491 1490 1488 1495 1500 1503 1494 1500 1501 1498 1499 1504 1509 1512 1520 1527 1531 1537 1542 1545
1527 1525 1522 1519 1516 1513 1510 1507 1504 1501 1498 1494 1490 1486 1484 1482 1481 1471 1469 1474 1479 1483 1486 1488 1487 1487 1484 1482 1485 1492 1496 1488 1491 1500 1502 1502 1507 1510 1513 1520 1522 1528 1536 1542 1545
1526 1523 1520 1517 1514 1511 1507 1505 1502 1499 1496 1492 1488 1485 1482 1482 1484 1470 1468 1471 1477 1482 1485 1485 1484 1484 1482 1480 1471 1484 1480 1482 1494 1496 1504 1505 1507 1508 1510 1524 1524 1531 1537 1541 1546
1524 1521 1518 1515 1512 1509 1505 1502 1499 1496 1493 1490 1487 1484 1482 1480 1471 1469 1470 1473 1475 1480 1482 1481 1481 1481 1480 1476 1470 1478 1480 1485 1493 1498 1503 1507 1512 1514 1518 1523 1527 1534 1540 1543 1546
1521 1519 1516 1512 1509 1506 1503 1499 1496 1494 1490 1487 1484 1482 1481 1478 1466 1468 1470 1472 1473 1476 1479 1478 1477 1478 1476 1475 1472 1476 1478 1483 1488 1493 1500 1504 1515 1515 1522 1525 1530 1536 1541 1544 1546
1518 1516 1513 1510 1506 1502 1499 1496 1493 1491 1488 1485 1482 1480 1477 1466 1464 1467 1468 1470 1472 1473 1476 1475 1477 1479 1475 1476 1470 1474 1482 1484 1487 1491 1498 1501 1519 1522 1524 1527 1532 1537 1541 1544 1546
1515 1512 1510 1507 1503 1499 1495 1493 1489 1487 1484 1482 1480 1479 1470 1462 1463 1466 1468 1468 1471 1473 1473 1474 1475 1476 1475 1473 1468 1476 1481 1502 1491 1492 1500 1498 1528 1521 1524 1529 1532 1536 1538 1541 1544
1513 1509 1506 1503 1500 1496 1492 1489 1485 1482 1480 1478 1478 1478 1466 1462 1461 1462 1467 1468 1471 1473 1474 1474 1475 1473 1471 1476 1483 1479 1504 1501 1503 1489 1493 1498 1520 1515 1521 1525 1528 1531 1534 1537 1541
1509 1506 1503 1500 1497 1492 1489 1485 1480 1478 1476 1476 1476 1480 1461 1454 1458 1461 1464 1467 1470 1472 1474 1475 1474 1473 1473 1483 1509 1496 1494 1496 1499 1495 1493 1501 1511 1511 1517 1521 1523 1526 1530 1534 1537
1506 1502 1499 1496 1494 1490 1486 1483 1481 1478 1474 1471 1467 1462 1454 1454 1458 1459 1462 1465 1469 1470 1474 1470 1479 1487 1476 1470 1469 1471 1479 1492 1492 1487 1494 1502 1507 1508 1513 1517 1521 1523 1524 1528 1532
1503 1499 1495 1492 1490 1488 1485 1482 1479 1479 1468 1464 1460 1455 1452 1452 1456 1456 1459 1462 1464 1470 1468 1475 1483 1468 1463 1463 1463 1466 1479 1485 1477 1481 1487 1498 1507 1505 1512 1518 1514 1519 1521 1524 1528
1499 1495 1492 1488 1485 1484 1481 1479 1478 1475 1471 1451 1451 1447 1444 1446 1446 1449 1454 1457 1460 1467 1466 1475 1471 1462 1463 1462 1464 1466 1474 1479 1480 1479 1482 1496 1516 1515 1504 1499 1508 1509 1516 1522 1523
1495 1491 1488 1484 1484 1480 1477 1478 1476 1471 1472 1440 1428 1430 1436 1438 1439 1444 1449 1454 1455 1464 1463 1467 1460 1460 1462 1464 1458 1478 1455 1457 1468 1481 1521 1487 1539 1520 1511 1504 1502 1503 1509 1514 1520
1492 1488 1485 1485 1479 1477 1478 1475 1473 1471 1499 1413 1412 1418 1422 1431 1436 1438 1445 1449 1452 1454 1459 1463 1458 1457 1459 1455 1450 1463 1453 1458 1463 1478 1483 1488 1510 1502 1507 1509 1498 1500 1504 1509 1512
1487 1484 1479 1482 1475 1476 1473 1472 1474 1484 1482 1418 1405 1415 1425 1428 1431 1434 1440 1446 1447 1449 1449 1450 1445 1446 1448 1443 1444 1446 1454 1461 1464 1479 1514 1488 1499 1516 1501 1489 1483 1483 1497 1499 1505
1481 1479 1475 1472 1469 1475 1473 1474 1484 1487 1433 1418 1410 1409 1419 1426 1428 1430 1435 1443 1450 1467 1463 1447 1444 1438 1438 1449 1444 1447 1469 1510 1518 1516 1518 1477 1489 1491 1471 1470 1474 1480 1484 1491 1496
1472 1470 1466 1463 1466 1470 1472 1475 1488 1451 1440 1405 1419 1408 1419 1419 1425 1426 1432 1443 1438 1445 1457 1466 1470 1439 1430 1441 1455 1457 1470 1508 1525 1523 1502 1466 1489 1473 1452 1455 1465 1471 1475 1482 1491
1465 1461 1456 1454 1459 1463 1470 1478 1463 1445 1423 1423 1417 1420 1419 1412 1418 1424 1428 1433 1433 1434 1456 1459 1458 1427 1426 1426 1436 1454 1471 1456 1483 1475 1499 1477 1452 1444 1446 1455 1462 1466 1471 1476 1483
1460 1453 1444 1446 1451 1458 1465 1460 1443 1429 1427 1428 1433 1420 1427 1410 1414 1420 1423 1419 1426 1425 1427 1437 1462 1426 1422 1424 1427 1441 1440 1477 1486 1509 1517 1487 1475 1478 1459 1456 1458 1464 1468 1471 1476
1462 1455 1436 1442 1448 1455 1456 1446 1435 1427 1431 1434 1428 1419 1411 1406 1399 1410 1415 1410 1412 1419 1419 1424 1444 1433 1422 1431 1442 1443 1453 1455 1467 1482 1509 1508 1492 1452 1454 1454 1456 1457 1461 1467 1475
1464 1457 1441 1436 1448 1445 1444 1436 1430 1425 1425 1419 1414 1409 1405 1399 1403 1397 1404 1399 1401 1408 1417 1413 1430 1445 1429 1413 1415 1425 1440 1451 1487 1483 1477 1488 1484 1436 1442 1446 1451 1456 1461 1466 1471
1468 1453 1438 1442 1441 1439 1432 1429 1424 1422 1418 1414 1410 1400 1393 1397 1409 1396 1389 1382 1388 1397 1403 1406 1425 1451 1441 1422 1413 1427 1429 1435 1443 1455 1478 1494 1482 1443 1443 1448 1451 1457 1462 1465 1470
1472 1454 1436 1433 1430 1429 1430 1424 1417 1412 1410 1406 1402 1394 1393 1395 1390 1396 1388 1377 1377 1383 1387 1396 1414 1429 1449 1430 1419 1433 1425 1427 1440 1471 1470 1471 1464 1457 1454 1454 1456 1454 1462 1466 1467
1472 1457 1453 1443 1436 1438 1430 1422 1416 1409 1400 1397 1396 1391 1399 1402 1396 1393 1381 1377 1366 1371 1380 1390 1420 1413 1410 1406 1407 1414 1420 1423 1437 1443 1464 1451 1457 1451 1444 1449 1451 1453 1460 1465 1466
1471 1466 1459 1453 1442 1432 1423 1419 1409 1400 1400 1397 1403 1388 1392 1401 1404 1401 1394 1387 1383 1372 1373 1378 1410 1402 1408 1401 1406 1417 1414 1421 1423 1427 1430 1435 1446 1426 1427 1436 1439 1448 1454 1458 1463
1471 1468 1465 1450 1440 1439 1424 1418 1403 1395 1394 1401 1403 1388 1387 1399 1399 1388 1388 1384 1380 1378 1379 1382 1397 1411 1426 1404 1413 1436 1417 1417 1419 1413 1418 1439 1428 1423 1433 1438 1443 1449 1454 1457 1460